Year,Month,Day,Hour,Minute,Value (Times are PST for temperature in C)
2016,11,13,08,36,9.90
2016,11,13,08,37,9.90
2016,11,13,08,38,9.90
2016,11,13,08,39,9.90
2016,11,13,08,40,9.90
2016,11,13,08,41,9.90
2016,11,13,08,42,9.80
2016,11,13,08,43,9.90
2016,11,13,08,44,9.90
2016,11,13,08,45,9.90
2016,11,13,08,46,9.80
2016,11,13,08,47,9.90
2016,11,13,08,48,9.90
2016,11,13,08,49,9.90
2016,11,13,08,50,9.90
2016,11,13,08,51,9.90
2016,11,13,08,52,9.90
2016,11,13,08,53,9.90
2016,11,13,08,54,9.90
2016,11,13,08,55,9.90
2016,11,13,08,56,9.90
2016,11,13,08,57,9.90
2016,11,13,08,58,10.00
2016,11,13,08,59,10.00
2016,11,13,09,00,10.00
2016,11,13,09,01,10.00
2016,11,13,09,02,10.00
2016,11,13,09,03,10.00
2016,11,13,09,04,10.00
2016,11,13,09,05,10.10
2016,11,13,09,06,10.10
2016,11,13,09,07,10.10
2016,11,13,09,08,10.10
2016,11,13,09,09,10.10
2016,11,13,09,10,10.10
2016,11,13,09,11,10.10
2016,11,13,09,12,10.10
2016,11,13,09,13,10.10
2016,11,13,09,14,10.10
2016,11,13,09,15,10.10
2016,11,13,09,16,10.10
2016,11,13,09,17,10.10
2016,11,13,09,18,10.10
2016,11,13,09,19,10.10
2016,11,13,09,20,10.10
2016,11,13,09,21,10.10
2016,11,13,09,22,10.10
2016,11,13,09,23,10.10
2016,11,13,09,24,10.10
2016,11,13,09,25,10.10
2016,11,13,09,26,10.10
2016,11,13,09,27,10.20
2016,11,13,09,28,10.20
2016,11,13,09,29,10.20
2016,11,13,09,30,10.20
2016,11,13,09,31,10.20
2016,11,13,09,32,10.20
2016,11,13,09,33,10.20
2016,11,13,09,34,10.30
2016,11,13,09,35,10.30
2016,11,13,09,36,10.30
2016,11,13,09,37,10.30
2016,11,13,09,38,10.30
2016,11,13,09,39,10.40
2016,11,13,09,40,10.40
2016,11,13,09,41,10.40
2016,11,13,09,42,10.40
2016,11,13,09,43,10.40
2016,11,13,09,44,10.50
2016,11,13,09,45,10.50
2016,11,13,09,46,10.50
2016,11,13,09,47,10.50
2016,11,13,09,48,10.50
2016,11,13,09,49,10.50
2016,11,13,09,50,10.50
2016,11,13,09,51,10.50
2016,11,13,09,52,10.50
2016,11,13,09,53,10.50
2016,11,13,09,54,10.50
2016,11,13,09,55,10.50
2016,11,13,09,56,10.50
2016,11,13,09,57,10.50
2016,11,13,09,58,10.50
2016,11,13,09,59,10.50
2016,11,13,10,00,10.50
2016,11,13,10,01,10.60
2016,11,13,10,02,10.60
2016,11,13,10,03,10.60
2016,11,13,10,04,10.60
2016,11,13,10,05,10.60
2016,11,13,10,06,10.70
2016,11,13,10,07,10.70
2016,11,13,10,08,10.70
2016,11,13,10,09,10.70
2016,11,13,10,10,10.70
2016,11,13,10,11,10.70
2016,11,13,10,12,10.70
2016,11,13,10,13,10.70
2016,11,13,10,14,10.70
2016,11,13,10,15,10.70
2016,11,13,10,16,10.70
2016,11,13,10,17,10.70
2016,11,13,10,18,10.70
2016,11,13,10,19,10.70
2016,11,13,10,20,10.70
2016,11,13,10,21,10.80
2016,11,13,10,22,10.80
2016,11,13,10,23,10.80
2016,11,13,10,24,10.80
2016,11,13,10,25,10.80
2016,11,13,10,26,10.80
2016,11,13,10,27,10.80
2016,11,13,10,28,10.80
2016,11,13,10,29,10.80
2016,11,13,10,30,10.80
2016,11,13,10,31,10.80
2016,11,13,10,32,10.80
2016,11,13,10,33,10.80
2016,11,13,10,34,10.80
2016,11,13,10,35,10.80
2016,11,13,10,36,10.80
2016,11,13,10,37,10.80
2016,11,13,10,38,10.80
2016,11,13,10,39,10.90
2016,11,13,10,40,10.90
2016,11,13,10,41,10.90
2016,11,13,10,42,10.90
2016,11,13,10,43,10.90
2016,11,13,10,44,10.90
2016,11,13,10,45,10.90
2016,11,13,10,46,10.90
2016,11,13,10,47,10.90
2016,11,13,10,48,11.00
2016,11,13,10,49,11.00
2016,11,13,10,50,11.00
2016,11,13,10,51,11.00
2016,11,13,10,52,11.00
2016,11,13,10,53,11.00
2016,11,13,10,54,11.00
2016,11,13,10,55,11.00
2016,11,13,10,56,11.00
2016,11,13,10,57,11.00
2016,11,13,10,58,11.10
2016,11,13,10,59,11.10
2016,11,13,11,00,11.10
2016,11,13,11,01,11.10
2016,11,13,11,02,11.20
2016,11,13,11,03,11.20
2016,11,13,11,04,11.20
2016,11,13,11,05,11.10
2016,11,13,11,06,11.10
2016,11,13,11,07,11.10
2016,11,13,11,08,11.20
2016,11,13,11,09,11.20
2016,11,13,11,10,11.20
2016,11,13,11,11,11.20
2016,11,13,11,12,11.20
2016,11,13,11,13,11.20
2016,11,13,11,14,11.30
2016,11,13,11,15,11.20
2016,11,13,11,16,11.20
2016,11,13,11,17,11.30
2016,11,13,11,18,11.30
2016,11,13,11,19,11.30
2016,11,13,11,20,11.20
2016,11,13,11,21,11.20
2016,11,13,11,22,11.20
2016,11,13,11,23,11.20
2016,11,13,11,24,11.20
2016,11,13,11,25,11.30
2016,11,13,11,26,11.30
2016,11,13,11,27,11.30
2016,11,13,11,28,11.30
2016,11,13,11,29,11.30
2016,11,13,11,30,11.30
2016,11,13,11,31,11.30
2016,11,13,11,32,11.30
2016,11,13,11,33,11.30
2016,11,13,11,34,11.30
2016,11,13,11,35,11.30
2016,11,13,11,36,11.30
2016,11,13,11,37,11.30
2016,11,13,11,38,11.30
2016,11,13,11,39,11.30
2016,11,13,11,40,11.30
2016,11,13,11,41,11.30
2016,11,13,11,42,11.30
2016,11,13,11,43,11.30
2016,11,13,11,44,11.30
2016,11,13,11,45,11.30
2016,11,13,11,46,11.20
2016,11,13,11,47,11.20
2016,11,13,11,48,11.20
2016,11,13,11,49,11.20
2016,11,13,11,50,11.20
2016,11,13,11,51,11.20
2016,11,13,11,52,11.20
2016,11,13,11,53,11.20
2016,11,13,11,54,11.20
2016,11,13,11,55,11.20
2016,11,13,11,56,11.10
2016,11,13,11,57,11.10
2016,11,13,11,58,11.10
2016,11,13,11,59,11.00
2016,11,13,12,00,11.00
2016,11,13,12,01,10.90
2016,11,13,12,02,10.90
2016,11,13,12,03,10.90
2016,11,13,12,04,10.90
2016,11,13,12,05,10.90
2016,11,13,12,06,10.90
2016,11,13,12,07,11.00
2016,11,13,12,08,11.00
2016,11,13,12,09,11.00
2016,11,13,12,10,11.00
2016,11,13,12,11,10.90
2016,11,13,12,12,10.90
2016,11,13,12,13,10.90
2016,11,13,12,14,10.90
2016,11,13,12,15,10.90
2016,11,13,12,16,10.90
2016,11,13,12,17,10.90
2016,11,13,12,18,10.90
2016,11,13,12,19,10.90
2016,11,13,12,20,10.90
2016,11,13,12,21,10.90
2016,11,13,12,22,10.90
2016,11,13,12,23,10.90
2016,11,13,12,24,10.90
2016,11,13,12,25,10.90
2016,11,13,12,26,10.90
2016,11,13,12,27,10.90
2016,11,13,12,28,10.90
2016,11,13,12,29,10.90
2016,11,13,12,30,10.90
2016,11,13,12,31,10.90
2016,11,13,12,32,10.90
2016,11,13,12,33,10.90
2016,11,13,12,34,10.90
2016,11,13,12,35,10.90
2016,11,13,12,36,10.90
2016,11,13,12,37,10.90
2016,11,13,12,38,10.90
2016,11,13,12,39,10.90
2016,11,13,12,40,10.90
2016,11,13,12,41,10.90
2016,11,13,12,42,10.90
2016,11,13,12,43,10.90
2016,11,13,12,44,11.00
2016,11,13,12,45,11.00
2016,11,13,12,46,11.00
2016,11,13,12,47,11.00
2016,11,13,12,48,11.00
2016,11,13,12,49,11.00
2016,11,13,12,50,11.00
2016,11,13,12,51,11.00
2016,11,13,12,52,11.00
2016,11,13,12,53,11.00
2016,11,13,12,54,11.00
2016,11,13,12,55,11.00
2016,11,13,12,56,11.00
2016,11,13,12,57,11.00
2016,11,13,12,58,11.00
2016,11,13,12,59,10.90
2016,11,13,13,00,10.90
2016,11,13,13,01,11.00
2016,11,13,13,02,10.90
2016,11,13,13,03,10.90
2016,11,13,13,04,10.90
2016,11,13,13,05,11.00
2016,11,13,13,06,10.90
2016,11,13,13,07,11.00
2016,11,13,13,08,11.00
2016,11,13,13,09,11.00
2016,11,13,13,10,11.00
2016,11,13,13,11,11.00
2016,11,13,13,12,11.00
2016,11,13,13,13,11.00
2016,11,13,13,14,11.00
2016,11,13,13,15,11.00
2016,11,13,13,16,11.00
2016,11,13,13,17,11.00
2016,11,13,13,18,11.00
2016,11,13,13,19,11.00
2016,11,13,13,20,11.00
2016,11,13,13,21,11.00
2016,11,13,13,22,11.00
2016,11,13,13,23,11.00
2016,11,13,13,24,11.00
2016,11,13,13,25,11.00
2016,11,13,13,26,11.00
2016,11,13,13,27,11.00
2016,11,13,13,28,11.00
2016,11,13,13,29,11.00
2016,11,13,13,30,10.90
2016,11,13,13,31,10.90
2016,11,13,13,32,10.90
2016,11,13,13,33,10.90
2016,11,13,13,34,10.90
2016,11,13,13,35,10.90
2016,11,13,13,36,10.90
2016,11,13,13,37,10.90
2016,11,13,13,38,11.00
2016,11,13,13,39,11.00
2016,11,13,13,40,11.00
2016,11,13,13,41,11.00
2016,11,13,13,42,10.90
2016,11,13,13,43,10.90
2016,11,13,13,44,10.90
2016,11,13,13,45,10.90
2016,11,13,13,46,10.90
2016,11,13,13,47,10.90
2016,11,13,13,48,10.90
2016,11,13,13,49,10.90
2016,11,13,13,50,10.90
2016,11,13,13,51,10.90
2016,11,13,13,52,10.90
2016,11,13,13,53,10.90
2016,11,13,13,54,10.90
2016,11,13,13,55,10.90
2016,11,13,13,56,10.90
2016,11,13,13,57,10.90
2016,11,13,13,58,10.90
2016,11,13,13,59,10.90
2016,11,13,14,00,10.90
2016,11,13,14,01,10.90
2016,11,13,14,02,11.00
2016,11,13,14,03,11.00
2016,11,13,14,04,11.00
2016,11,13,14,05,11.00
2016,11,13,14,06,10.90
2016,11,13,14,07,10.90
2016,11,13,14,08,11.00
2016,11,13,14,09,11.00
2016,11,13,14,10,11.00
2016,11,13,14,11,11.00
2016,11,13,14,12,11.00
2016,11,13,14,13,11.00
2016,11,13,14,14,11.00
2016,11,13,14,15,11.00
2016,11,13,14,16,11.00
2016,11,13,14,17,10.90
2016,11,13,14,18,10.90
2016,11,13,14,19,10.90
2016,11,13,14,20,10.90
2016,11,13,14,21,10.90
2016,11,13,14,22,10.90
2016,11,13,14,23,10.90
2016,11,13,14,24,11.00
2016,11,13,14,25,11.00
2016,11,13,14,26,11.00
2016,11,13,14,27,11.00
2016,11,13,14,28,11.00
2016,11,13,14,29,11.00
2016,11,13,14,30,11.00
2016,11,13,14,31,11.00
2016,11,13,14,32,11.00
2016,11,13,14,33,11.00
2016,11,13,14,34,11.00
2016,11,13,14,35,11.00
2016,11,13,14,36,11.00
2016,11,13,14,37,11.00
2016,11,13,14,38,11.00
2016,11,13,14,39,11.00
2016,11,13,14,40,11.00
2016,11,13,14,41,11.00
2016,11,13,14,42,11.00
2016,11,13,14,43,11.00
2016,11,13,14,44,11.00
2016,11,13,14,45,11.00
2016,11,13,14,46,11.00
2016,11,13,14,47,11.00
2016,11,13,14,48,11.00
2016,11,13,14,49,11.00
2016,11,13,14,50,11.00
2016,11,13,14,51,11.00
2016,11,13,14,52,11.00
2016,11,13,14,53,11.00
2016,11,13,14,54,11.00
2016,11,13,14,55,11.00
2016,11,13,14,56,11.00
2016,11,13,14,57,11.00
2016,11,13,14,58,11.00
2016,11,13,14,59,11.00
2016,11,13,15,00,11.00
2016,11,13,15,01,11.00
2016,11,13,15,02,11.00
2016,11,13,15,03,11.00
2016,11,13,15,04,11.00
2016,11,13,15,05,11.00
2016,11,13,15,06,11.00
2016,11,13,15,07,11.00
2016,11,13,15,08,11.00
2016,11,13,15,09,11.00
2016,11,13,15,10,11.00
2016,11,13,15,11,11.00
2016,11,13,15,12,10.90
2016,11,13,15,13,10.90
2016,11,13,15,14,11.00
2016,11,13,15,15,10.90
2016,11,13,15,16,11.00
2016,11,13,15,17,10.90
2016,11,13,15,18,11.00
2016,11,13,15,19,11.00
2016,11,13,15,20,11.00
2016,11,13,15,21,11.00
2016,11,13,15,22,11.00
2016,11,13,15,23,11.00
2016,11,13,15,24,11.00
2016,11,13,15,25,11.00
2016,11,13,15,26,11.00
2016,11,13,15,27,11.00
2016,11,13,15,28,11.00
2016,11,13,15,29,11.00
2016,11,13,15,30,11.00
2016,11,13,15,31,11.00
2016,11,13,15,32,11.00
2016,11,13,15,33,11.00
2016,11,13,15,34,10.90
2016,11,13,15,35,10.90
2016,11,13,15,36,10.90
2016,11,13,15,37,10.90
2016,11,13,15,38,10.90
2016,11,13,15,39,10.90
2016,11,13,15,40,10.90
2016,11,13,15,41,10.90
2016,11,13,15,42,10.90
2016,11,13,15,43,10.90
2016,11,13,15,44,10.90
2016,11,13,15,45,10.90
2016,11,13,15,46,10.90
2016,11,13,15,47,10.90
2016,11,13,15,48,10.90
2016,11,13,15,49,10.90
2016,11,13,15,50,10.90
2016,11,13,15,51,10.90
2016,11,13,15,52,10.90
2016,11,13,15,53,10.90
2016,11,13,15,54,10.90
2016,11,13,15,55,10.90
2016,11,13,15,56,10.90
2016,11,13,15,57,10.90
2016,11,13,15,58,10.90
2016,11,13,15,59,10.90
2016,11,13,16,00,10.90
2016,11,13,16,01,10.90
2016,11,13,16,02,10.90
2016,11,13,16,03,10.90
2016,11,13,16,04,10.90
2016,11,13,16,05,10.90
2016,11,13,16,06,10.90
2016,11,13,16,07,10.90
2016,11,13,16,08,10.90
2016,11,13,16,09,10.90
2016,11,13,16,10,10.90
2016,11,13,16,11,10.90
2016,11,13,16,12,10.90
2016,11,13,16,13,10.90
2016,11,13,16,14,10.90
2016,11,13,16,15,10.90
2016,11,13,16,16,10.90
2016,11,13,16,17,10.90
2016,11,13,16,18,10.90
2016,11,13,16,19,10.90
2016,11,13,16,20,10.90
2016,11,13,16,21,10.80
2016,11,13,16,22,10.80
2016,11,13,16,23,10.80
2016,11,13,16,24,10.80
2016,11,13,16,25,10.80
2016,11,13,16,26,10.80
2016,11,13,16,27,10.80
2016,11,13,16,28,10.80
2016,11,13,16,29,10.80
2016,11,13,16,30,10.80
2016,11,13,16,31,10.80
2016,11,13,16,32,10.80
2016,11,13,16,33,10.80
2016,11,13,16,34,10.80
2016,11,13,16,35,10.80
2016,11,13,16,36,10.80
2016,11,13,16,37,10.80
2016,11,13,16,38,10.80
2016,11,13,16,39,10.80
2016,11,13,16,40,10.80
2016,11,13,16,41,10.80
2016,11,13,16,42,10.80
2016,11,13,16,43,10.80
2016,11,13,16,44,10.80
2016,11,13,16,45,10.80
2016,11,13,16,46,10.80
2016,11,13,16,47,10.80
2016,11,13,16,48,10.80
2016,11,13,16,49,10.80
2016,11,13,16,50,10.80
2016,11,13,16,51,10.80
2016,11,13,16,52,10.80
2016,11,13,16,53,10.80
2016,11,13,16,54,10.70
2016,11,13,16,55,10.70
2016,11,13,16,56,10.70
2016,11,13,16,57,10.70
2016,11,13,16,58,10.70
2016,11,13,16,59,10.70
2016,11,13,17,00,10.70
2016,11,13,17,01,10.70
2016,11,13,17,02,10.70
2016,11,13,17,03,10.70
2016,11,13,17,04,10.70
2016,11,13,17,05,10.70
2016,11,13,17,06,10.70
2016,11,13,17,07,10.70
2016,11,13,17,08,10.70
2016,11,13,17,09,10.70
2016,11,13,17,10,10.70
2016,11,13,17,11,10.70
2016,11,13,17,12,10.70
2016,11,13,17,13,10.70
2016,11,13,17,14,10.70
2016,11,13,17,15,10.70
2016,11,13,17,16,10.70
2016,11,13,17,17,10.70
2016,11,13,17,18,10.70
2016,11,13,17,19,10.70
2016,11,13,17,20,10.70
2016,11,13,17,21,10.70
2016,11,13,17,22,10.70
2016,11,13,17,23,10.70
2016,11,13,17,24,10.70
2016,11,13,17,25,10.70
2016,11,13,17,26,10.70
2016,11,13,17,27,10.70
2016,11,13,17,28,10.70
2016,11,13,17,29,10.70
2016,11,13,17,30,10.70
2016,11,13,17,31,10.70
2016,11,13,17,32,10.70
2016,11,13,17,33,10.70
2016,11,13,17,34,10.70
2016,11,13,17,35,10.70
2016,11,13,17,36,10.70
2016,11,13,17,37,10.60
2016,11,13,17,38,10.70
2016,11,13,17,39,10.70
2016,11,13,17,40,10.70
2016,11,13,17,41,10.70
2016,11,13,17,42,10.70
2016,11,13,17,43,10.70
2016,11,13,17,44,10.70
2016,11,13,17,45,10.70
2016,11,13,17,46,10.70
2016,11,13,17,47,10.70
2016,11,13,17,48,10.70
2016,11,13,17,49,10.70
2016,11,13,17,50,10.70
2016,11,13,17,51,10.70
2016,11,13,17,52,10.70
2016,11,13,17,53,10.70
2016,11,13,17,54,10.70
2016,11,13,17,55,10.70
2016,11,13,17,56,10.70
2016,11,13,17,57,10.70
2016,11,13,17,58,10.70
2016,11,13,17,59,10.70
2016,11,13,18,00,10.70
2016,11,13,18,01,10.70
2016,11,13,18,02,10.70
2016,11,13,18,03,10.70
2016,11,13,18,04,10.70
2016,11,13,18,05,10.70
2016,11,13,18,06,10.70
2016,11,13,18,07,10.70
2016,11,13,18,08,10.70
2016,11,13,18,09,10.70
2016,11,13,18,10,10.70
2016,11,13,18,11,10.70
2016,11,13,18,12,10.70
2016,11,13,18,13,10.70
2016,11,13,18,14,10.70
2016,11,13,18,15,10.70
2016,11,13,18,16,10.70
2016,11,13,18,17,10.70
2016,11,13,18,18,10.70
2016,11,13,18,19,10.70
2016,11,13,18,20,10.70
2016,11,13,18,21,10.80
2016,11,13,18,22,10.70
2016,11,13,18,23,10.80
2016,11,13,18,24,10.80
2016,11,13,18,25,10.80
2016,11,13,18,26,10.80
2016,11,13,18,27,10.80
2016,11,13,18,28,10.80
2016,11,13,18,29,10.80
2016,11,13,18,30,10.80
2016,11,13,18,31,10.80
2016,11,13,18,32,10.80
2016,11,13,18,33,10.80
2016,11,13,18,34,10.80
2016,11,13,18,35,10.80
2016,11,13,18,36,10.80
2016,11,13,18,37,10.80
2016,11,13,18,38,10.80
2016,11,13,18,39,10.80
2016,11,13,18,40,10.80
2016,11,13,18,41,10.80
2016,11,13,18,42,10.80
2016,11,13,18,43,10.80
2016,11,13,18,44,10.80
2016,11,13,18,45,10.80
2016,11,13,18,46,10.80
2016,11,13,18,47,10.80
2016,11,13,18,48,10.80
2016,11,13,18,49,10.70
2016,11,13,18,50,10.70
2016,11,13,18,51,10.70
2016,11,13,18,52,10.70
2016,11,13,18,53,10.70
2016,11,13,18,54,10.70
2016,11,13,18,55,10.70
2016,11,13,18,56,10.70
2016,11,13,18,57,10.70
2016,11,13,18,58,10.70
2016,11,13,18,59,10.70
2016,11,13,19,00,10.70
2016,11,13,19,01,10.70
2016,11,13,19,02,10.70
2016,11,13,19,03,10.70
2016,11,13,19,04,10.70
2016,11,13,19,05,10.70
2016,11,13,19,06,10.70
2016,11,13,19,07,10.70
2016,11,13,19,08,10.70
2016,11,13,19,09,10.70
2016,11,13,19,10,10.70
2016,11,13,19,11,10.70
2016,11,13,19,12,10.70
2016,11,13,19,13,10.70
2016,11,13,19,14,10.70
2016,11,13,19,15,10.70
2016,11,13,19,16,10.70
2016,11,13,19,17,10.70
2016,11,13,19,18,10.70
2016,11,13,19,19,10.70
2016,11,13,19,20,10.70
2016,11,13,19,21,10.70
2016,11,13,19,22,10.70
2016,11,13,19,23,10.70
2016,11,13,19,24,10.70
2016,11,13,19,25,10.70
2016,11,13,19,26,10.70
2016,11,13,19,27,10.70
2016,11,13,19,28,10.70
2016,11,13,19,29,10.70
2016,11,13,19,30,10.70
2016,11,13,19,31,10.70
2016,11,13,19,32,10.70
2016,11,13,19,33,10.70
2016,11,13,19,34,10.70
2016,11,13,19,35,10.70
2016,11,13,19,36,10.70
2016,11,13,19,37,10.70
2016,11,13,19,38,10.70
2016,11,13,19,39,10.70
2016,11,13,19,40,10.70
2016,11,13,19,41,10.70
2016,11,13,19,42,10.70
2016,11,13,19,43,10.70
2016,11,13,19,44,10.70
2016,11,13,19,45,10.70
2016,11,13,19,46,10.70
2016,11,13,19,47,10.70
2016,11,13,19,48,10.60
2016,11,13,19,49,10.60
2016,11,13,19,50,10.60
2016,11,13,19,51,10.60
2016,11,13,19,52,10.60
2016,11,13,19,53,10.60
2016,11,13,19,54,10.60
2016,11,13,19,55,10.60
2016,11,13,19,56,10.60
2016,11,13,19,57,10.60
2016,11,13,19,58,10.60
2016,11,13,19,59,10.60
2016,11,13,20,00,10.60
2016,11,13,20,01,10.60
2016,11,13,20,02,10.60
2016,11,13,20,03,10.60
2016,11,13,20,04,10.60
2016,11,13,20,05,10.60
2016,11,13,20,06,10.60
2016,11,13,20,07,10.60
2016,11,13,20,08,10.60
2016,11,13,20,09,10.60
2016,11,13,20,10,10.60
2016,11,13,20,11,10.70
2016,11,13,20,12,10.70
2016,11,13,20,13,10.70
2016,11,13,20,14,10.70
2016,11,13,20,15,10.70
2016,11,13,20,16,10.70
2016,11,13,20,17,10.70
2016,11,13,20,18,10.70
2016,11,13,20,19,10.70
2016,11,13,20,20,10.70
2016,11,13,20,21,10.70
2016,11,13,20,22,10.70
2016,11,13,20,23,10.70
2016,11,13,20,24,10.70
2016,11,13,20,25,10.70
2016,11,13,20,26,10.70
2016,11,13,20,27,10.70
2016,11,13,20,28,10.70
2016,11,13,20,29,10.70
2016,11,13,20,30,10.70
2016,11,13,20,31,10.70
2016,11,13,20,32,10.70
2016,11,13,20,33,10.70
2016,11,13,20,34,10.70
2016,11,13,20,35,10.70
2016,11,13,20,36,10.70
2016,11,13,20,37,10.70
2016,11,13,20,38,10.70
2016,11,13,20,39,10.70
2016,11,13,20,40,10.70
2016,11,13,20,41,10.70
2016,11,13,20,42,10.70
2016,11,13,20,43,10.70
2016,11,13,20,44,10.70
2016,11,13,20,45,10.70
2016,11,13,20,46,10.70
2016,11,13,20,47,10.70
2016,11,13,20,48,10.70
2016,11,13,20,49,10.70
2016,11,13,20,50,10.70
2016,11,13,20,51,10.70
2016,11,13,20,52,10.70
2016,11,13,20,53,10.70
2016,11,13,20,54,10.70
2016,11,13,20,55,10.70
2016,11,13,20,56,10.70
2016,11,13,20,57,10.70
2016,11,13,20,58,10.70
2016,11,13,20,59,10.70
2016,11,13,21,00,10.70
2016,11,13,21,01,10.70
2016,11,13,21,02,10.70
2016,11,13,21,03,10.70
2016,11,13,21,04,10.70
2016,11,13,21,05,10.70
2016,11,13,21,06,10.70
2016,11,13,21,07,10.70
2016,11,13,21,08,10.70
2016,11,13,21,09,10.70
2016,11,13,21,10,10.80
2016,11,13,21,11,10.80
2016,11,13,21,12,10.80
2016,11,13,21,13,10.80
2016,11,13,21,14,10.70
2016,11,13,21,15,10.80
2016,11,13,21,16,10.80
2016,11,13,21,17,10.80
2016,11,13,21,18,10.80
2016,11,13,21,19,10.80
2016,11,13,21,20,10.80
2016,11,13,21,21,10.80
2016,11,13,21,22,10.80
2016,11,13,21,23,10.80
2016,11,13,21,24,10.70
2016,11,13,21,25,10.70
2016,11,13,21,26,10.70
2016,11,13,21,27,10.70
2016,11,13,21,28,10.70
2016,11,13,21,29,10.70
2016,11,13,21,30,10.70
2016,11,13,21,31,10.70
2016,11,13,21,32,10.70
2016,11,13,21,33,10.70
2016,11,13,21,34,10.70
2016,11,13,21,35,10.70
2016,11,13,21,36,10.70
2016,11,13,21,37,10.70
2016,11,13,21,38,10.70
2016,11,13,21,39,10.70
2016,11,13,21,40,10.70
2016,11,13,21,41,10.70
2016,11,13,21,42,10.70
2016,11,13,21,43,10.70
2016,11,13,21,44,10.70
2016,11,13,21,45,10.70
2016,11,13,21,46,10.70
2016,11,13,21,47,10.70
2016,11,13,21,48,10.70
2016,11,13,21,49,10.70
2016,11,13,21,50,10.70
2016,11,13,21,51,10.70
2016,11,13,21,52,10.70
2016,11,13,21,53,10.70
2016,11,13,21,54,10.70
2016,11,13,21,55,10.70
2016,11,13,21,56,10.70
2016,11,13,21,57,10.70
2016,11,13,21,58,10.70
2016,11,13,21,59,10.70
2016,11,13,22,00,10.70
2016,11,13,22,01,10.70
2016,11,13,22,02,10.70
2016,11,13,22,03,10.70
2016,11,13,22,04,10.70
2016,11,13,22,05,10.70
2016,11,13,22,06,10.70
2016,11,13,22,07,10.70
2016,11,13,22,08,10.70
2016,11,13,22,09,10.70
2016,11,13,22,10,10.70
2016,11,13,22,11,10.70
2016,11,13,22,12,10.60
2016,11,13,22,13,10.60
2016,11,13,22,14,10.60
2016,11,13,22,15,10.60
2016,11,13,22,16,10.60
2016,11,13,22,17,10.60
2016,11,13,22,18,10.60
2016,11,13,22,19,10.60
2016,11,13,22,20,10.60
2016,11,13,22,21,10.60
2016,11,13,22,22,10.60
2016,11,13,22,23,10.60
2016,11,13,22,24,10.60
2016,11,13,22,25,10.60
2016,11,13,22,26,10.60
2016,11,13,22,27,10.60
2016,11,13,22,28,10.60
2016,11,13,22,29,10.60
2016,11,13,22,30,10.60
2016,11,13,22,31,10.60
2016,11,13,22,32,10.60
2016,11,13,22,33,10.60
2016,11,13,22,34,10.60
2016,11,13,22,35,10.60
2016,11,13,22,36,10.60
2016,11,13,22,37,10.60
2016,11,13,22,38,10.60
2016,11,13,22,39,10.60
2016,11,13,22,40,10.60
2016,11,13,22,41,10.60
2016,11,13,22,42,10.60
2016,11,13,22,43,10.60
2016,11,13,22,44,10.60
2016,11,13,22,45,10.60
2016,11,13,22,46,10.60
2016,11,13,22,47,10.60
2016,11,13,22,48,10.60
2016,11,13,22,49,10.60
2016,11,13,22,50,10.60
2016,11,13,22,51,10.60
2016,11,13,22,52,10.60
2016,11,13,22,53,10.60
2016,11,13,22,54,10.60
2016,11,13,22,55,10.60
2016,11,13,22,56,10.60
2016,11,13,22,57,10.60
2016,11,13,22,58,10.50
2016,11,13,22,59,10.50
2016,11,13,23,00,10.50
2016,11,13,23,01,10.50
2016,11,13,23,02,10.50
2016,11,13,23,03,10.50
2016,11,13,23,04,10.50
2016,11,13,23,05,10.50
2016,11,13,23,06,10.50
2016,11,13,23,07,10.50
2016,11,13,23,08,10.50
2016,11,13,23,09,10.50
2016,11,13,23,10,10.50
2016,11,13,23,11,10.50
2016,11,13,23,12,10.40
2016,11,13,23,13,10.40
2016,11,13,23,14,10.40
2016,11,13,23,15,10.40
2016,11,13,23,16,10.40
2016,11,13,23,17,10.40
2016,11,13,23,18,10.40
2016,11,13,23,19,10.40
2016,11,13,23,20,10.40
2016,11,13,23,21,10.40
2016,11,13,23,22,10.40
2016,11,13,23,23,10.40
2016,11,13,23,24,10.40
2016,11,13,23,25,10.30
2016,11,13,23,26,10.30
2016,11,13,23,27,10.30
2016,11,13,23,28,10.30
2016,11,13,23,29,10.30
2016,11,13,23,30,10.30
2016,11,13,23,31,10.30
2016,11,13,23,32,10.30
2016,11,13,23,33,10.30
2016,11,13,23,34,10.30
2016,11,13,23,35,10.30
2016,11,13,23,36,10.20
2016,11,13,23,37,10.20
2016,11,13,23,38,10.20
2016,11,13,23,39,10.20
2016,11,13,23,40,10.20
2016,11,13,23,41,10.20
2016,11,13,23,42,10.20
2016,11,13,23,43,10.20
2016,11,13,23,44,10.20
2016,11,13,23,45,10.20
2016,11,13,23,46,10.20
2016,11,13,23,47,10.20
2016,11,13,23,48,10.20
2016,11,13,23,49,10.20
2016,11,13,23,50,10.20
2016,11,13,23,51,10.20
2016,11,13,23,52,10.20
2016,11,13,23,53,10.20
2016,11,13,23,54,10.20
2016,11,13,23,55,10.20
2016,11,13,23,56,10.10
2016,11,13,23,57,10.10
2016,11,13,23,58,10.10
2016,11,13,23,59,10.10
